GW6076 Weather Reports


time (UTC)temp
F
wind
direction
speed
knots
gust
knots
rain 1hr
in
rain 24hr
in
rain mn
in
humidity
%
barometer
mb
20260507164256 84 340 5.2 7.0 0.00 0.00 0.00 47 1018.0
20260507163753 83 50 4.3 7.0 0.00 0.00 0.00 47 1018.1
20260507163251 83 51 1.7 7.0 0.00 0.00 0.00 50 1018.3
20260507162747 84 43 9.6 9.6 0.00 0.00 0.00 46 1018.3
20260507162243 83 354 2.6 3.5 0.00 0.00 0.00 50 1018.6
20260507161740 84 74 0.9 7.0 0.00 0.00 0.00 49 1018.3
20260507161237 83 69 5.2 8.7 0.00 0.00 0.00 49 1018.3
20260507160732 83 116 3.5 7.0 0.00 0.00 0.00 51 1018.9
20260507160229 83 73 7.0 9.6 0.00 0.00 0.00 49 1018.9
20260507155725 82 359 1.7 7.0 0.00 0.00 0.00 51 1019.0
20260507155221 82 91 2.6 8.7 0.00 0.00 0.00 49 1019.0
20260507154718 82 2 2.6 4.3 0.00 0.00 0.00 50 1019.2
20260507154216 82 84 5.2 11.3 0.00 0.00 0.00 52 1019.1
20260507153712 82 110 4.3 8.7 0.00 0.00 0.00 52 1019.1
20260507153208 82 65 5.2 8.7 0.00 0.00 0.00 51 1019.4
20260507152705 82 70 3.5 13.9 0.00 0.00 0.00 52 1019.2
20260507152201 82 71 3.5 8.7 0.00 0.00 0.00 53 1019.3
20260507151657 82 136 8.7 8.7 0.00 0.00 0.00 53 1019.7
20260507151154 81 65 6.1 12.2 0.00 0.00 0.00 55 1019.9
20260507150651 81 60 3.5 9.6 0.00 0.00 0.00 55 1019.9
20260507150148 80 112 4.3 7.8 0.00 0.00 0.00 58 1019.8
20260507145643 80 99 4.3 11.3 0.00 0.00 0.00 58 1020.0
20260507145141 80 51 1.7 9.6 0.00 0.00 0.00 57 1019.9
20260507144637 81 164 0.9 5.2 0.00 0.00 0.00 57 1020.1
20260507144135 81 103 5.2 11.3 0.00 0.00 0.00 56 1020.2
20260507143631 80 162 1.7 9.6 0.00 0.00 0.00 57 1020.1
20260507143129 80 125 8.7 12.2 0.00 0.00 0.00 57 1020.3
20260507142624 80 39 7.0 11.3 0.00 0.00 0.00 57 1020.4
20260507142121 79 124 2.6 9.6 0.00 0.00 0.00 58 1020.4
20260507141618 80 151 3.5 10.4 0.00 0.00 0.00 57 1020.4
20260507141114 80 53 6.1 12.2 0.00 0.00 0.00 57 1020.5
20260507140611 79 76 2.6 8.7 0.00 0.00 0.00 58 1020.9
20260507140108 79 72 7.0 8.7 0.00 0.00 0.00 59 1020.7
20260507135605 79 75 5.2 11.3 0.00 0.00 0.00 59 1021.0
20260507135103 79 150 5.2 12.2 0.00 0.00 0.00 60 1020.9
20260507134559 79 120 8.7 9.6 0.00 0.00 0.00 60 1021.0
20260507134055 79 72 3.5 10.4 0.00 0.00 0.00 59 1021.1
20260507133551 78 61 7.0 8.7 0.00 0.00 0.00 60 1021.0
20260507133049 78 120 1.7 12.2 0.00 0.00 0.00 62 1021.1
20260507132545 78 85 5.2 12.2 0.00 0.00 0.00 60 1021.1
20260507132042 78 124 5.2 7.8 0.00 0.00 0.00 61 1021.4
20260507131539 78 81 3.5 10.4 0.00 0.00 0.00 61 1021.4
20260507131036 78 81 4.3 8.7 0.00 0.00 0.00 61 1021.6
20260507130533 78 122 7.8 8.7 0.00 0.00 0.00 61 1021.4
20260507130031 78 120 4.3 9.6 0.00 0.00 0.00 61 1021.5
20260507125529 78 38 4.3 9.6 0.00 0.00 0.00 61 1021.4
20260507125026 78 125 7.0 10.4 0.00 0.00 0.00 63 1021.5
20260507124523 77 83 2.6 3.5 0.00 0.00 0.00 68 1021.7
20260507124021 77 73 3.5 5.2 0.00 0.00 0.00 68 1021.4
20260507123519 75 230 1.7 5.2 0.00 0.00 0.00 70 1021.5
20260507123015 76 47 3.5 5.2 0.00 0.00 0.00 69 1021.5
20260507122510 75 34 1.7 6.1 0.00 0.00 0.00 72 1021.6
20260507122006 74 121 5.2 5.2 0.00 0.00 0.00 72 1021.4
20260507121502 73 74 2.6 6.1 0.00 0.00 0.00 74 1021.6
20260507120958 74 112 4.3 4.3 0.00 0.00 0.00 73 1021.6
20260507120454 73 103 2.6 7.0 0.00 0.00 0.00 73 1021.1
20260507115951 73 18 0.9 3.5 0.00 0.00 0.00 74 1021.3
20260507115448 74 120 2.6 3.5 0.00 0.00 0.00 73 1021.5
20260507114943 72 39 2.6 3.5 0.00 0.00 0.00 75 1021.5
20260507114440 72 53 2.6 5.2 0.00 0.00 0.00 75 1021.5
20260507113937 73 139 1.7 3.5 0.00 0.00 0.00 74 1021.5
20260507113434 72 102 1.7 3.5 0.00 0.00 0.00 75 1021.4
20260507112932 72 123 1.7 2.6 0.00 0.00 0.00 76 1021.4
20260507112429 72 146 0.9 2.6 0.00 0.00 0.00 75 1021.4
20260507111926 71 125 2.6 2.6 0.00 0.00 0.00 77 1021.4
20260507111423 71 154 1.7 2.6 0.00 0.00 0.00 77 1021.5
20260507110919 71 107 0.0 2.6 0.00 0.00 0.00 77 1021.4
20260507110415 71 175 0.9 1.7 0.00 0.00 0.00 76 1021.1
20260507105912 71 130 1.7 2.6 0.00 0.00 0.00 77 1021.3
20260507105409 71 134 0.9 1.7 0.00 0.00 0.00 76 1021.2
20260507104906 70 141 1.7 1.7 0.00 0.00 0.00 77 1021.4
20260507104402 71 178 0.0 1.7 0.00 0.00 0.00 77 1021.3
20260507103858 70 115 0.0 1.7 0.00 0.00 0.00 77 1021.3
20260507103355 69 141 0.0 0.9 0.00 0.00 0.00 78 1021.2
20260507102851 69 194 0.0 0.9 0.00 0.00 0.00 80 1021.1
20260507102348 67 89 0.0 0.9 0.00 0.00 0.00 82 1021.1
20260507101844 66 108 0.0 1.7 0.00 0.00 0.00 83 1021.1
20260507101344 64 55 0.0 1.7 0.00 0.00 0.00 89 1021.0
20260507100842 63 4 0.0 0.9 0.00 0.00 0.00 92 1020.9
20260507100340 62 9 0.0 0.9 0.00 0.00 0.00 95 1020.9
20260507095838 61 37 0.9 1.7 0.00 0.00 0.00 96 1020.9
20260507095334 61 334 0.0 1.7 0.00 0.00 0.00 96 1020.7
20260507094831 60 10 0.0 1.7 0.00 0.00 0.00 97 1020.5
20260507094327 60 355 1.7 1.7 0.00 0.00 0.00 97 1020.7
20260507093825 60 30 1.7 1.7 0.00 0.00 0.00 97 1020.9
20260507093324 59 328 1.7 2.6 0.00 0.00 0.00 97 1020.9
20260507092821 59 30 1.7 2.6 0.00 0.00 0.00 96 1020.7
20260507092317 59 334 0.0 1.7 0.00 0.00 0.00 96 1020.4
20260507091813 59 156 0.0 1.7 0.00 0.00 0.00 96 1020.4
20260507091310 59 100 0.0 0.9 0.00 0.00 0.00 97 1020.6
20260507090805 59 50 0.0 1.7 0.00 0.00 0.00 97 1020.6
20260507090302 59 18 0.0 1.7 0.00 0.00 0.00 97 1020.5
20260507085759 59 76 0.0 1.7 0.00 0.00 0.00 96 1020.2
20260507085255 59 130 0.0 0.0 0.00 0.00 0.00 96 1020.3
20260507084753 59 95 0.9 1.7 0.00 0.00 0.00 96 1020.3
20260507084249 59 25 0.0 1.7 0.00 0.00 0.00 96 1020.2
20260507083747 59 120 0.9 1.7 0.00 0.00 0.00 96 1020.2
20260507083243 59 74 0.9 1.7 0.00 0.00 0.00 97 1020.2
20260507082739 59 49 0.0 1.7 0.00 0.00 0.00 97 1020.1
20260507082235 59 38 0.0 0.9 0.00 0.00 0.00 97 1020.0
20260507081732 59 269 0.0 0.9 0.00 0.00 0.00 97 1020.0
20260507081228 59 341 0.9 1.7 0.00 0.00 0.00 97 1020.0
20260507080725 59 74 0.9 1.7 0.00 0.00 0.00 97 1020.0
20260507080221 59 58 0.9 1.7 0.00 0.00 0.00 97 1020.2
20260507075717 59 54 0.0 1.7 0.00 0.00 0.00 97 1020.1
20260507075213 59 91 1.7 1.7 0.00 0.00 0.00 96 1019.9
20260507074709 59 2 0.9 1.7 0.00 0.00 0.00 96 1020.1
20260507074208 59 53 1.7 1.7 0.00 0.00 0.00 96 1020.0
20260507073704 59 44 0.9 0.9 0.00 0.00 0.00 96 1019.8
20260507073200 59 82 0.0 0.0 0.00 0.00 0.00 96 1019.7
20260507072658 59 22 0.0 0.9 0.00 0.00 0.00 96 1020.0
20260507072155 59 38 0.0 0.9 0.00 0.00 0.00 96 1020.1
20260507071653 59 55 0.0 0.0 0.00 0.00 0.00 96 1020.0
20260507071149 59 141 0.0 0.9 0.00 0.00 0.00 96 1020.0
20260507070646 59 50 0.0 0.0 0.00 0.00 0.00 96 1020.0
20260507070143 59 63 0.0 0.0 0.00 0.00 0.00 95 1019.9
20260507065639 59 69 0.0 0.0 0.00 0.00 0.00 95 1019.9
20260507065136 59 62 0.0 0.0 0.00 0.00 0.00 95 1020.2
20260507064634 60 113 0.0 0.9 0.00 0.00 0.00 95 1019.8
20260507064132 60 41 0.0 0.9 0.00 0.00 0.00 95 1020.0
20260507063629 60 55 0.0 0.9 0.00 0.00 0.00 95 1020.1
20260507063126 60 89 0.0 0.0 0.00 0.00 0.00 95 1020.2
20260507062623 60 129 0.0 0.0 0.00 0.00 0.00 95 1020.1
20260507062121 60 50 0.0 0.9 0.00 0.00 0.00 94 1020.1
20260507061618 60 60 0.0 0.9 0.00 0.00 0.00 94 1020.1
20260507061116 61 304 0.0 0.9 0.00 0.00 0.00 95 1020.2
20260507060614 60 315 0.0 1.7 0.00 0.00 0.00 95 1020.2
20260507060110 60 72 0.0 0.0 0.00 0.00 0.00 94 1020.1
20260507055606 60 295 0.0 0.0 0.00 0.00 0.00 94 1020.2
20260507055102 60 37 0.0 0.9 0.00 0.00 0.00 94 1020.2
20260507054558 61 129 0.0 0.0 0.00 0.00 0.00 94 1020.2
20260507054055 61 18 0.9 0.9 0.00 0.00 0.00 94 1020.1
20260507053553 61 55 0.0 0.0 0.00 0.00 0.00 93 1020.2
20260507053052 61 230 0.0 0.0 0.00 0.00 0.00 94 1020.1
20260507052549 61 39 1.7 1.7 0.00 0.00 0.00 94 1020.5
20260507052045 61 18 0.0 1.7 0.00 0.00 0.00 94 1020.3
20260507051543 61 222 0.0 1.7 0.00 0.00 0.00 94 1020.7
20260507051040 61 308 0.9 1.7 0.00 0.00 0.00 95 1020.4
20260507050536 61 42 0.9 0.9 0.00 0.00 0.00 94 1020.7
20260507050033 61 47 0.0 0.9 0.00 0.00 0.00 94 1020.4
20260507045529 61 269 0.0 0.9 0.00 0.00 0.00 94 1020.6
20260507045027 61 38 0.0 0.0 0.00 0.00 0.00 94 1020.7
20260507044524 61 89 0.0 0.0 0.00 0.00 0.00 94 1020.7
20260507044020 61 47 0.9 1.7 0.00 0.00 0.00 94 1020.6
20260507043516 61 53 0.0 0.9 0.00 0.00 0.00 93 1020.7
20260507043014 61 89 0.0 0.9 0.00 0.00 0.00 93 1020.9
20260507042510 61 302 0.0 0.9 0.00 0.00 0.00 93 1020.7
20260507042005 61 315 0.0 0.0 0.00 0.00 0.00 93 1021.0
20260507041502 61 89 0.0 1.7 0.00 0.00 0.00 93 1021.0
20260507040959 61 81 0.0 0.9 0.00 0.00 0.00 93 1021.1
20260507040455 61 97 0.9 0.9 0.00 0.00 0.00 93 1021.1
20260507035951 61 66 0.0 0.9 0.00 0.00 0.00 92 1021.1
20260507035448 62 44 0.0 0.0 0.00 0.00 0.00 92 1021.3
20260507034945 62 142 0.0 0.0 0.00 0.00 0.00 92 1021.1
20260507034441 62 22 0.0 0.9 0.00 0.00 0.00 92 1021.3
20260507033940 62 97 0.9 0.9 0.00 0.00 0.00 91 1021.2
20260507033437 62 50 0.0 0.9 0.00 0.00 0.00 91 1021.4
20260507032934 62 37 0.0 0.0 0.00 0.00 0.00 91 1021.4
20260507032431 62 37 0.0 0.9 0.00 0.00 0.00 91 1021.5
20260507031926 63 109 0.0 0.0 0.00 0.00 0.00 90 1021.5
20260507031426 63 310 0.0 0.9 0.00 0.00 0.00 90 1021.7
20260507030920 63 303 0.0 0.0 0.00 0.00 0.00 90 1021.7
20260507030417 63 62 0.9 1.7 0.00 0.00 0.00 90 1021.6
20260507025914 63 129 0.0 0.0 0.00 0.00 0.00 90 1021.8
20260507025412 63 102 0.0 0.9 0.00 0.00 0.00 89 1021.7
20260507024909 63 38 0.0 0.9 0.00 0.00 0.00 90 1021.7
20260507024407 63 55 0.0 1.7 0.00 0.00 0.00 89 1021.8
20260507023902 63 29 0.0 1.7 0.00 0.00 0.00 89 1021.8
20260507023359 64 111 0.9 1.7 0.00 0.00 0.00 88 1022.0
20260507022857 63 13 0.0 1.7 0.00 0.00 0.00 90 1021.7
20260507022353 63 11 0.0 1.7 0.00 0.00 0.00 90 1021.8
20260507021849 63 302 1.7 1.7 0.00 0.00 0.00 90 1021.6
20260507021344 63 269 0.0 0.0 0.00 0.00 0.00 89 1021.8
20260507020843 63 40 1.7 2.6 0.00 0.00 0.00 89 1022.1
20260507020339 63 269 0.0 0.9 0.00 0.00 0.00 88 1022.2
20260507015836 64 142 0.0 0.9 0.00 0.00 0.00 88 1022.0
20260507015334 64 0 0.0 1.7 0.00 0.00 0.00 88 1021.5
20260507014831 64 311 0.9 2.6 0.00 0.00 0.00 88 1022.0
20260507014327 64 323 0.0 1.7 0.00 0.00 0.00 88 1021.7
20260507013823 64 89 0.0 0.0 0.00 0.00 0.00 87 1022.0
20260507013321 64 309 0.0 0.0 0.00 0.00 0.00 87 1021.7
20260507012818 64 3 1.7 1.7 0.00 0.00 0.00 87 1021.6
20260507012314 64 24 0.0 2.6 0.00 0.00 0.00 87 1021.8
20260507011811 64 44 0.0 0.9 0.00 0.00 0.00 87 1022.0
20260507011308 64 299 0.0 0.9 0.00 0.00 0.00 87 1021.8
20260507010808 64 38 0.0 0.9 0.00 0.00 0.00 87 1022.1
20260507010304 64 50 0.0 0.0 0.00 0.00 0.00 87 1021.8
20260507005801 64 75 0.0 0.0 0.00 0.00 0.00 87 1021.6
20260507005257 64 303 0.9 1.7 0.00 0.00 0.00 87 1021.8
20260507004754 64 37 0.0 0.0 0.00 0.00 0.00 86 1021.7
20260507004252 64 22 0.0 0.9 0.00 0.00 0.00 86 1022.0
20260507003748 64 321 0.9 1.7 0.00 0.00 0.00 85 1021.7
20260507003243 64 273 1.7 1.7 0.00 0.00 0.00 86 1021.7
20260507002739 65 126 0.0 0.0 0.00 0.00 0.00 86 1021.6
20260507002236 64 50 0.0 0.9 0.00 0.00 0.00 86 1022.0
20260507001732 65 50 0.0 0.0 0.00 0.00 0.00 85 1021.6
20260507001230 65 0 0.9 1.7 0.00 0.00 0.00 84 1021.7
20260507000726 65 319 0.0 1.7 0.00 0.00 0.00 84 1021.5
20260507000221 65 217 0.0 0.0 0.00 0.00 0.00 85 1021.8
20260506235719 65 32 0.0 0.9 0.00 0.00 0.00 84 1021.7
20260506235214 66 50 0.0 0.9 0.00 0.00 0.00 83 1021.7
20260506234711 65 310 1.7 1.7 0.00 0.00 0.00 84 1021.4
20260506234209 65 29 0.0 1.7 0.00 0.00 0.00 83 1021.6
20260506233706 65 324 0.0 1.7 0.00 0.00 0.00 83 1021.6
20260506233202 66 309 0.0 0.9 0.00 0.00 0.00 83 1021.6
20260506232659 65 42 0.0 0.9 0.00 0.00 0.00 84 1021.7
20260506232154 66 48 0.0 0.9 0.00 0.00 0.00 83 1021.6
20260506231651 66 0 0.0 1.7 0.00 0.00 0.00 83 1021.6
20260506231150 66 319 0.0 1.7 0.00 0.00 0.00 82 1021.5
20260506230646 66 124 0.0 0.9 0.00 0.00 0.00 82 1021.5
20260506230143 66 326 0.0 0.9 0.00 0.00 0.00 82 1021.6
20260506225640 66 291 0.0 0.9 0.00 0.00 0.00 82 1021.3
20260506225137 66 37 0.0 1.7 0.00 0.00 0.00 81 1021.8
20260506224633 66 217 0.0 0.0 0.00 0.00 0.00 81 1021.4
20260506224130 66 312 1.7 1.7 0.00 0.00 0.00 81 1021.4
20260506223626 67 288 1.7 1.7 0.00 0.00 0.00 80 1021.2
20260506223122 67 89 0.0 0.9 0.00 0.00 0.00 80 1021.3
20260506222619 67 40 0.9 1.7 0.00 0.00 0.00 79 1021.3
20260506222115 68 249 0.0 0.0 0.00 0.00 0.00 79 1021.3
20260506221613 68 89 0.0 0.9 0.00 0.00 0.00 79 1021.2
20260506221111 68 322 0.0 0.9 0.00 0.00 0.00 78 1021.2
20260506220607 68 269 0.0 0.9 0.00 0.00 0.00 78 1021.0
20260506215600 69 293 1.7 1.7 0.00 0.00 0.00 76 1021.0
20260506215055 69 264 0.0 0.9 0.00 0.00 0.00 76 1021.0
20260506214552 69 269 0.0 0.9 0.00 0.00 0.00 77 1021.1
20260506214049 69 269 0.0 0.9 0.00 0.00 0.00 76 1020.7
20260506213547 70 277 0.0 0.0 0.00 0.00 0.00 75 1021.1
20260506213044 70 301 1.7 2.6 0.00 0.00 0.00 74 1020.9
20260506212541 71 297 0.9 1.7 0.00 0.00 0.00 74 1020.7
20260506212036 71 296 0.9 1.7 0.00 0.00 0.00 72 1020.9
20260506211532 72 224 0.0 0.0 0.00 0.00 0.00 70 1021.0
20260506211030 73 37 0.0 0.0 0.00 0.00 0.00 69 1020.9
20260506210526 74 304 0.0 0.9 0.00 0.00 0.00 68 1020.5
20260506210023 75 89 0.0 0.0 0.00 0.00 0.00 64 1020.9
20260506205519 75 101 1.7 1.7 0.00 0.00 0.00 62 1020.7
20260506205015 75 144 0.0 1.7 0.00 0.00 0.00 61 1021.0
20260506204513 76 94 0.0 2.6 0.00 0.00 0.00 60 1020.9
20260506204010 77 135 0.9 4.3 0.00 0.00 0.00 58 1020.5
20260506203508 77 98 0.9 2.6 0.00 0.00 0.00 58 1020.7
20260506203004 78 117 0.0 2.6 0.00 0.00 0.00 57 1020.7
20260506202502 78 129 2.6 3.5 0.00 0.00 0.00 56 1020.7
20260506201957 79 110 1.7 3.5 0.00 0.00 0.00 56 1020.5
20260506201456 79 129 1.7 5.2 0.00 0.00 0.00 56 1020.5
20260506200952 79 117 4.3 6.1 0.00 0.00 0.00 54 1020.6
20260506200448 80 96 1.7 3.5 0.00 0.00 0.00 55 1020.3
20260506195944 80 114 2.6 3.5 0.00 0.00 0.00 54 1020.2
20260506195442 80 128 1.7 5.2 0.00 0.00 0.00 54 1020.4
20260506194938 80 153 1.7 4.3 0.00 0.00 0.00 53 1020.3
20260506194436 80 83 1.7 5.2 0.00 0.00 0.00 53 1020.3
20260506193932 80 126 2.6 7.8 0.00 0.00 0.00 54 1020.3
20260506193429 80 125 1.7 7.0 0.00 0.00 0.00 54 1020.1
20260506192926 79 110 1.7 3.5 0.00 0.00 0.00 56 1020.3
20260506192423 78 139 4.3 5.2 0.00 0.00 0.00 55 1020.1
20260506191920 79 129 2.6 6.1 0.00 0.00 0.00 54 1020.2
20260506191416 79 140 6.1 6.1 0.00 0.00 0.00 53 1020.1
20260506190913 80 119 3.5 5.2 0.00 0.00 0.00 52 1020.0
20260506190409 82 103 8.7 8.7 0.00 0.00 0.00 50 1019.8
20260506185906 82 81 1.7 5.2 0.00 0.00 0.00 50 1020.0
20260506185404 81 118 3.5 6.1 0.00 0.00 0.00 51 1020.0
20260506184901 81 115 0.9 5.2 0.00 0.00 0.00 50 1020.0
20260506184358 82 74 0.9 4.3 0.00 0.00 0.00 49 1019.9
20260506183855 83 85 1.7 4.3 0.00 0.00 0.00 48 1019.9
20260506183350 82 121 3.5 4.3 0.00 0.00 0.00 49 1020.1
20260506182847 82 84 2.6 5.2 0.00 0.00 0.00 49 1020.1
20260506182345 82 177 1.7 5.2 0.00 0.00 0.00 49 1019.9
20260506181842 82 104 3.5 7.8 0.00 0.00 0.00 50 1020.1
20260506181340 82 131 7.0 8.7 0.00 0.00 0.00 48 1020.1
20260506180837 82 141 2.6 9.6 0.00 0.00 0.00 50 1020.0
20260506180333 81 95 4.3 4.3 0.00 0.00 0.00 52 1020.0
20260506175829 81 142 6.1 7.8 0.00 0.00 0.00 52 1020.1
20260506175326 81 107 3.5 8.7 0.00 0.00 0.00 52 1020.6
20260506174823 82 115 3.5 7.0 0.00 0.00 0.00 51 1020.2
20260506174320 83 109 0.0 5.2 0.00 0.00 0.00 50 1020.1
20260506173818 82 102 1.7 7.0 0.00 0.00 0.00 51 1020.3
20260506173315 81 130 2.6 9.6 0.00 0.00 0.00 51 1020.4
20260506172812 82 102 4.3 9.6 0.00 0.00 0.00 49 1020.4
20260506172308 82 44 1.7 6.1 0.00 0.00 0.00 50 1020.6
20260506171806 82 128 3.5 11.3 0.00 0.00 0.00 50 1020.7
20260506171303 81 56 5.2 7.8 0.00 0.00 0.00 50 1020.9
20260506170801 82 61 6.1 10.4 0.00 0.00 0.00 49 1021.0
20260506170257 81 138 6.1 9.6 0.00 0.00 0.00 51 1020.9
20260506165755 81 161 3.5 9.6 0.00 0.00 0.00 52 1020.9
20260506165252 81 167 2.6 4.3 0.00 0.00 0.00 52 1020.9
20260506164749 80 152 3.5 7.8 0.00 0.00 0.00 52 1021.3